Voltar ao catálogo

SL-12 R/B(2)

AtivoLEO
NORAD 15772·ROCKET BODY·🇷🇺 Russia

Lançado May 30, 1985 de Baikonur Cosmodrome

Loading…

Próximas Passagens (próximas 24 horas)

TLE

AtualizadoSource: Space-Track

Época: Sep 14, 2026, 10:08 UTC

1 15772U 85042D   26257.42270150 -.00000028  00000-0  86859-5 0  9996
2 15772  71.1081  48.9778 0035619 195.2978 193.8570 14.22020836141221

Acompanhe SL-12 R/B(2) em tempo real com AllMySat

Download on the App Store